SB KEPS @ AMSAT $ORB12355.O Orbital Elements 12355.OSCAR
HR AMSAT ORBITAL ELEMENTS FOR OSCAR SATELLITES FROM WA5QGD FORT WORTH,TX December 20, 2012 BID: ORB12355.O TO ALL RADIO AMATEURS BT
Satellite: AO-07 Catalog number: 07530 Epoch time: 12355.09192142 Element set: 561 Inclination: 101.4148 deg RA of node: 345.2089 deg Eccentricity: 0.0011811 Arg of perigee: 279.4262 deg Mean anomaly: 080.5468 deg Mean motion: 12.53593586 rev/day Decay rate: -2.7e-07 rev/day^2 Epoch rev: 74334 Checksum: 292
Satellite: FO-29 Catalog number: 24278 Epoch time: 12355.24202159 Element set: 6 Inclination: 098.5795 deg RA of node: 071.5423 deg Eccentricity: 0.0349656 Arg of perigee: 267.7030 deg Mean anomaly: 088.4495 deg Mean motion: 13.52994046 rev/day Decay rate: 5.5e-07 rev/day^2 Epoch rev: 80711 Checksum: 323
Satellite: SO-33 Catalog number: 25509 Epoch time: 12354.42021102 Element set: 393 Inclination: 031.4334 deg RA of node: 005.3158 deg Eccentricity: 0.0351473 Arg of perigee: 024.3143 deg Mean anomaly: 337.3630 deg Mean motion: 14.28938113 rev/day Decay rate: 4.43e-06 rev/day^2 Epoch rev: 73916 Checksum: 261
Satellite: RS-22 Catalog number: 27939 Epoch time: 12355.36187850 Element set: 11 Inclination: 097.7981 deg RA of node: 186.5400 deg Eccentricity: 0.0014142 Arg of perigee: 038.2356 deg Mean anomaly: 321.9847 deg Mean motion: 14.64263220 rev/day Decay rate: 5.75e-06 rev/day^2 Epoch rev: 49312 Checksum: 304
Satellite: VO-52 Catalog number: 28650 Epoch time: 12355.11878981 Element set: 295 Inclination: 097.5804 deg RA of node: 016.8509 deg Eccentricity: 0.0026626 Arg of perigee: 147.4349 deg Mean anomaly: 212.8474 deg Mean motion: 14.83454847 rev/day Decay rate: 1.488e-05 rev/day^2 Epoch rev: 41253 Checksum: 340
Satellite: HO-68 Catalog number: 36122 Epoch time: 12355.20529291 Element set: 116 Inclination: 100.3364 deg RA of node: 050.5855 deg Eccentricity: 0.0007724 Arg of perigee: 046.2107 deg Mean anomaly: 313.9646 deg Mean motion: 13.16300770 rev/day Decay rate: -4.4e-07 rev/day^2 Epoch rev: 14486 Checksum: 270
/EX SB KEPS @ AMSAT $ORB12355.D Orbital Elements 12355.MICROS
HR AMSAT ORBITAL ELEMENTS FOR THE MICROSATS FROM WA5QGD FORT WORTH,TX December 20, 2012 BID: ORB12355.D TO ALL RADIO AMATEURS BT
Satellite: UO-11 Catalog number: 14781 Epoch time: 12354.22979477 Element set: 55 Inclination: 097.9297 deg RA of node: 051.9008 deg Eccentricity: 0.0010016 Arg of perigee: 147.5406 deg Mean anomaly: 212.6424 deg Mean motion: 14.80697193 rev/day Decay rate: 4.84e-06 rev/day^2 Epoch rev: 54730 Checksum: 310
Satellite: AO-16 Catalog number: 20439 Epoch time: 12354.44794141 Element set: 632 Inclination: 098.4512 deg RA of node: 292.8262 deg Eccentricity: 0.0010821 Arg of perigee: 335.8912 deg Mean anomaly: 024.1762 deg Mean motion: 14.32121876 rev/day Decay rate: 1.05e-06 rev/day^2 Epoch rev: 19651 Checksum: 283
Satellite: LO-19 Catalog number: 20442 Epoch time: 12355.42105005 Element set: 565 Inclination: 098.4198 deg RA of node: 296.1448 deg Eccentricity: 0.0011309 Arg of perigee: 322.8415 deg Mean anomaly: 037.1977 deg Mean motion: 14.32336791 rev/day Decay rate: 8.4e-07 rev/day^2 Epoch rev: 19684 Checksum: 307
Satellite: AO-27 Catalog number: 22825 Epoch time: 12355.43259979 Element set: 271 Inclination: 098.5961 deg RA of node: 295.5429 deg Eccentricity: 0.0009293 Arg of perigee: 092.9705 deg Mean anomaly: 267.2565 deg Mean motion: 14.29519665 rev/day Decay rate: 1.96e-06 rev/day^2 Epoch rev: 309 Checksum: 350
Satellite: IO-26 Catalog number: 22826 Epoch time: 12355.39751937 Element set: 26 Inclination: 098.5910 deg RA of node: 295.8336 deg Eccentricity: 0.0009877 Arg of perigee: 085.6541 deg Mean anomaly: 274.5767 deg Mean motion: 14.29798273 rev/day Decay rate: 9.8e-07 rev/day^2 Epoch rev: 321 Checksum: 348
Satellite: GO-32 Catalog number: 25397 Epoch time: 12355.05896818 Element set: 953 Inclination: 098.3886 deg RA of node: 324.8545 deg Eccentricity: 0.0002094 Arg of perigee: 090.2536 deg Mean anomaly: 269.8870 deg Mean motion: 14.23312149 rev/day Decay rate: -8.1e-07 rev/day^2 Epoch rev: 75046 Checksum: 335
Satellite: NO-44 Catalog number: 26931 Epoch time: 12354.54590552 Element set: 215 Inclination: 067.0524 deg RA of node: 002.5853 deg Eccentricity: 0.0004751 Arg of perigee: 261.9817 deg Mean anomaly: 098.0772 deg Mean motion: 14.29871827 rev/day Decay rate: 3.24e-06 rev/day^2 Epoch rev: 58574 Checksum: 315
Satellite: SO-50 Catalog number: 27607 Epoch time: 12354.84687193 Element set: 945 Inclination: 064.5577 deg RA of node: 090.0164 deg Eccentricity: 0.0068155 Arg of perigee: 210.3144 deg Mean anomaly: 149.3989 deg Mean motion: 14.72692159 rev/day Decay rate: 9.52e-06 rev/day^2 Epoch rev: 53730 Checksum: 333
Satellite: CO-55 Catalog number: 27844 Epoch time: 12355.08283118 Element set: 536 Inclination: 098.7015 deg RA of node: 000.7616 deg Eccentricity: 0.0010435 Arg of perigee: 048.9481 deg Mean anomaly: 311.2599 deg Mean motion: 14.21132507 rev/day Decay rate: 2.13e-06 rev/day^2 Epoch rev: 49129 Checksum: 290
Satellite: CO-57 Catalog number: 27848 Epoch time: 12355.04939944 Element set: 484 Inclination: 098.7102 deg RA of node: 000.1496 deg Eccentricity: 0.0010385 Arg of perigee: 053.8196 deg Mean anomaly: 306.3955 deg Mean motion: 14.20869949 rev/day Decay rate: 1.96e-06 rev/day^2 Epoch rev: 49122 Checksum: 338
Satellite: AO-51 Catalog number: 28375 Epoch time: 12354.82414761 Element set: 443 Inclination: 098.1739 deg RA of node: 311.7373 deg Eccentricity: 0.0082543 Arg of perigee: 198.5754 deg Mean anomaly: 161.2408 deg Mean motion: 14.41046408 rev/day Decay rate: 1.22e-06 rev/day^2 Epoch rev: 44550 Checksum: 300
Satellite: CP3 Catalog number: 31129 Epoch time: 12355.46885235 Element set: 344 Inclination: 097.8868 deg RA of node: 352.3429 deg Eccentricity: 0.0099458 Arg of perigee: 263.7667 deg Mean anomaly: 095.2195 deg Mean motion: 14.53394696 rev/day Decay rate: 9.36e-06 rev/day^2 Epoch rev: 30103 Checksum: 348
Satellite: CO-65 Catalog number: 32785 Epoch time: 12355.17127415 Element set: 502 Inclination: 097.7762 deg RA of node: 051.6221 deg Eccentricity: 0.0014410 Arg of perigee: 169.4132 deg Mean anomaly: 190.7387 deg Mean motion: 14.83469211 rev/day Decay rate: 9.42e-06 rev/day^2 Epoch rev: 25133 Checksum: 291
Satellite: PRISM Catalog number: 33493 Epoch time: 12355.44322981 Element set: 366 Inclination: 098.1936 deg RA of node: 140.8803 deg Eccentricity: 0.0019174 Arg of perigee: 055.2911 deg Mean anomaly: 305.0146 deg Mean motion: 14.84995956 rev/day Decay rate: 2.698e-05 rev/day^2 Epoch rev: 21138 Checksum: 318
Satellite: SOHLA-1 Catalog number: 33496 Epoch time: 12354.37924659 Element set: 919 Inclination: 098.1187 deg RA of node: 105.0818 deg Eccentricity: 0.0006632 Arg of perigee: 164.1102 deg Mean anomaly: 196.0311 deg Mean motion: 14.70145670 rev/day Decay rate: 5.75e-06 rev/day^2 Epoch rev: 20945 Checksum: 297
Satellite: SO-67 Catalog number: 35870 Epoch time: 12355.45104432 Element set: 623 Inclination: 097.2123 deg RA of node: 024.6108 deg Eccentricity: 0.0000986 Arg of perigee: 183.9627 deg Mean anomaly: 283.2946 deg Mean motion: 15.25491129 rev/day Decay rate: 4.864e-05 rev/day^2 Epoch rev: 18099 Checksum: 321
Satellite: TISAT-1 Catalog number: 36799 Epoch time: 12355.45034080 Element set: 639 Inclination: 098.0490 deg RA of node: 073.0787 deg Eccentricity: 0.0013548 Arg of perigee: 290.3421 deg Mean anomaly: 069.6341 deg Mean motion: 14.82673460 rev/day Decay rate: 1.884e-05 rev/day^2 Epoch rev: 13208 Checksum: 311
Satellite: STUDSAT Catalog number: 36801 Epoch time: 12355.21557829 Element set: 552 Inclination: 098.0573 deg RA of node: 074.5698 deg Eccentricity: 0.0011653 Arg of perigee: 272.7808 deg Mean anomaly: 087.2172 deg Mean motion: 14.86355080 rev/day Decay rate: 5.681e-05 rev/day^2 Epoch rev: 13213 Checksum: 311
Satellite: FO-69 Catalog number: 37227 Epoch time: 12324.39082420 Element set: 0341 Inclination: 071.9700 deg RA of node: 329.4329 deg Eccentricity: 0.0015671 Arg of perigee: 026.5333 deg Mean anomaly: 333.6607 deg Mean motion: 14.77273675 rev/day Decay rate: 9.49e-06 rev/day^2 Epoch rev: 05901 Checksum: 306
Satellite: FO-70 Catalog number: 37380 Epoch time: 12324.35497821 Element set: 0345 Inclination: 071.9737 deg RA of node: 330.2673 deg Eccentricity: 0.0016487 Arg of perigee: 023.0914 deg Mean anomaly: 337.0959 deg Mean motion: 14.77019282 rev/day Decay rate: 9.12e-06 rev/day^2 Epoch rev: 05889 Checksum: 323
Satellite: ALMASAT-1 Catalog number: 38078 Epoch time: 12355.19932728 Element set: 842 Inclination: 069.4782 deg RA of node: 253.6940 deg Eccentricity: 0.0726938 Arg of perigee: 014.4559 deg Mean anomaly: 347.6164 deg Mean motion: 14.16972718 rev/day Decay rate: 3.4177e-04 rev/day^2 Epoch rev: 4382 Checksum: 350
Satellite: XATCOBEO Catalog number: 38082 Epoch time: 12356.04078304 Element set: 790 Inclination: 069.4832 deg RA of node: 242.1015 deg Eccentricity: 0.0658026 Arg of perigee: 008.0652 deg Mean anomaly: 353.0930 deg Mean motion: 14.35225271 rev/day Decay rate: 7.0938e-04 rev/day^2 Epoch rev: 4428 Checksum: 282
/EX SB KEPS @ AMSAT $ORB12355.W Orbital Elements 12355.WEATHER
HR AMSAT ORBITAL ELEMENTS FOR WEATHER SATELLITES FROM WA5QGD FORT WORTH,TX December 20, 2012 BID: ORB12355.W TO ALL RADIO AMATEURS BT
Satellite: NOAA-10 Catalog number: 16969 Epoch time: 12355.17543950 Element set: 181 Inclination: 098.5633 deg RA of node: 020.7520 deg Eccentricity: 0.0013041 Arg of perigee: 052.2217 deg Mean anomaly: 308.0146 deg Mean motion: 14.27603392 rev/day Decay rate: 1.38e-06 rev/day^2 Epoch rev: 36640 Checksum: 270
Satellite: NOAA-11 Catalog number: 19531 Epoch time: 12355.11710035 Element set: 172 Inclination: 098.7228 deg RA of node: 076.2804 deg Eccentricity: 0.0011946 Arg of perigee: 055.0330 deg Mean anomaly: 305.1966 deg Mean motion: 14.14996907 rev/day Decay rate: 6.2e-07 rev/day^2 Epoch rev: 25080 Checksum: 279
